[[{"header":{"parameterUnit":"m.s-1","parameterCategory":1,"la1":30.2991,"la2":30.254,"lo1":-89.0895,"lo2":-89.0444,"dy":0.0017,"dx":0.0017,"nx":28,"ny":28,"refTime":"2024-03-21T03:00:00:Z","depth":0,"parameterNumber":2,"parameterNumberName":"U-component_of_WINDS"},"data":[0,0,0,0,0,0,0,0,0,0,0,0,0,0,0,0,0,0,0,0,0,0,0,0,0,0,0,0,0,0,0,0,0,0,0,0,0,0,0,0,0,0,0,0,0,0,0,0,0,0,0,0,0,0,0,0,0,0,-3.088,-3.0879,0,-3.0734,-3.0732,-3.073,-3.0611,-3.0609,-3.0608,-3.0607,-3.0456,-3.0453,-3.0451,0,0,0,0,0,0,0,0,0,0,0,0,0,-3.1058,-3.1056,-3.0881,-3.0879,-3.0877,-3.0734,-3.0732,-3.073,-3.0611,-3.0609,-3.0608,-3.0606,-3.0457,-3.0454,-3.045,0,0,0,0,0,0,0,0,0,0,0,0,0,-3.0953,-3.1055,-3.0881,-3.08,-3.0791,-3.0734,-3.0732,-3.0729,-3.0611,-3.0609,-3.0607,-3.0606,-3.0458,-3.0454,-3.045,-3.0461,0,0,-3.0437,-3.0435,0,0,0,0,0,0,0,0,-3.0959,-3.0947,-3.0814,-3.0806,-3.0796,-3.0688,-3.0739,-3.0639,-3.0612,-3.068,-3.0607,-3.0605,-3.0535,-3.0524,-3.0501,-3.0454,-3.0447,-3.0436,-3.0434,-3.0432,-3.0431,0,0,0,0,0,0,0,-3.0967,-3.0953,-3.0822,-3.0812,-3.0801,-3.0772,-3.0755,-3.072,-3.0619,-3.0673,-3.0664,-3.0649,-3.053,-3.0505,-3.0496,-3.0445,-3.0437,-3.0433,-3.043,-3.0428,-3.04,-3.0402,0,0,0,0,0,0,-3.0987,-3.0959,-3.0827,-3.0818,-3.0875,-3.077,-3.0751,-3.0725,-3.062,-3.0602,-3.065,-3.0644,-3.0513,-3.0501,-3.0491,-3.0496,-3.0432,-3.0428,-3.0426,-3.0398,-3.04,-3.0402,0,0,0,0,0,0,-3.0991,-3.0976,-3.0833,-3.0886,-3.0866,-3.0769,-3.074,-3.0723,-3.0698,-3.0602,-3.0584,-3.0644,-3.0511,-3.0497,-3.0469,-3.0489,-3.0426,-3.0422,-3.0396,-3.0399,-3.0401,-3.0508,0,0,0,0,0,0,-3.0997,-3.0978,-3.0981,-3.0887,-3.0863,-3.0814,-3.0742,-3.0721,-3.0691,-3.0681,-3.0591,-3.0574,-3.0509,-3.0476,-3.0465,-3.0482,-3.0419,-3.0394,-3.0397,-3.0401,-3.0502,-3.0514,-3.0524,0,0,0,0,0,-3.1003,-3.1017,-3.0982,-3.0966,-3.0865,-3.0815,-3.0802,-3.0726,-3.0693,-3.0695,-3.0634,-3.0577,-3.049,-3.0474,-3.0461,-3.0477,-3.0392,-3.0396,-3.04,-3.0497,-3.0512,-3.0524,0,0,0,0,0,0,-3.1115,-3.1003,-3.0963,-3.0946,-3.0891,-3.0795,-3.0795,-3.0744,-3.0697,-3.0689,-3.0598,-3.0578,-3.0561,-3.0516,-3.0502,-3.0483,-3.0433,-3.0435,-3.0512,-3.0525,-3.0536,-3.0546,-3.0415,0,0,0,0,0,-3.1138,-3.1107,-3.1011,-3.1005,-3.098,-3.0893,-3.0869,-3.0815,-3.0755,-3.0731,-3.0667,-3.061,-3.057,-3.0545,-3.0503,-3.0496,-3.0475,-3.0501,-3.0512,-3.0521,-3.0523,-3.0517,-3.0527,-3.0416,-3.0416,-3.0416,0,0,-3.1184,-3.1119,-3.1105,-3.1026,-3.0977,-3.0948,-3.0874,-3.0845,-3.0822,-3.0726,-3.0696,-3.0648,-3.0579,-3.0562,-3.0552,-3.0524,-3.055,-3.0526,-3.0535,-3.0531,-3.0522,-3.0533,-3.0542,-3.0419,-3.0418,-3.0418,0,0,-3.1253,-3.1201,-3.1191,-3.1144,-3.1072,-3.1014,-3.1012,-3.0924,-3.0888,-3.0857,-3.0784,-3.0756,-3.0688,-3.0642,-3.061,-3.0664,-3.061,-3.0653,-3.071,-3.0705,-3.0714,-3.0721,-3.074,-3.0748,-3.0656,-3.0656,-3.0656,0,-3.132,-3.1272,-3.1193,-3.1169,-3.1136,-3.1049,-3.1038,-3.0996,-3.0914,-3.0894,-3.0865,-3.0778,-3.0726,-3.0697,-3.0711,-3.0688,-3.0682,-3.0662,-3.0719,-3.0725,-3.0731,-3.0748,-3.0756,-3.0662,-3.0661,-3.0661,-3.066,0,-3.1358,-3.1326,-3.1327,-3.125,-3.1218,-3.1201,-3.1119,-3.1096,-3.1047,-3.0992,-3.0962,-3.0896,-3.0839,-3.0829,-3.078,-3.0794,-3.0779,-3.0736,-3.0684,-3.0749,-3.0763,-3.0769,-3.067,-3.0668,-3.0666,-3.0665,0,0,-3.1491,-3.1372,-3.1373,-3.1337,-3.1252,-3.1226,-3.1206,-3.115,-3.1132,-3.1079,-3.1059,-3.1005,-3.0965,-3.0929,-3.0874,-3.087,-3.0917,-3.0827,-3.0824,-3.0846,-3.0929,-3.0961,-3.097,-3.0882,-3.0883,-3.0884,-3.0934,0,-3.1546,-3.1504,-3.1433,-3.1414,-3.1384,-3.1302,-3.1284,-3.123,-3.1179,-3.1146,-3.109,-3.1053,-3.1003,-3.0981,-3.0973,-3.0913,-3.0933,-3.0909,-3.0863,-3.0862,-3.0881,-3.0977,-3.1011,-3.1062,-3.094,-3.0941,-3.0941,0,-3.1604,-3.1556,-3.1535,-3.1452,-3.1437,-3.1422,-3.1366,-3.1336,-3.1273,-3.1237,-3.1198,-3.1138,-3.1113,-3.1068,-3.1031,-3.1017,-3.0994,-3.0962,-3.0962,-3.0954,-3.0905,-3.0971,-3.1076,-3.1084,-3.095,-3.0949,-3.0948,0,-3.1703,-3.1633,-3.1611,-3.1583,-3.1487,-3.1478,-3.1438,-3.1373,-3.1345,-3.1296,-3.1277,-3.1227,-3.1199,-3.1161,-3.109,-3.1064,-3.1062,-3.101,-3.1031,-3.1033,-3.1033,-3.1033,-3.1135,-3.102,-3.102,-3.102,-3.102,0,-3.1771,-3.1761,-3.1654,-3.1641,-3.1628,-3.1546,-3.1536,-3.1487,-3.1431,-3.1407,-3.1333,-3.1312,-3.122,-3.1189,-3.1133,-3.1112,-3.11,-3.107,-3.1055,-3.1076,-3.108,-3.1059,-3.1053,-3.1022,-3.1022,-3.1021,-3.1021,0,-3.1879,-3.1807,-3.1777,-3.1689,-3.1667,-3.1661,-3.1585,-3.1569,-3.1515,-3.1486,-3.1474,-3.1389,-3.1348,-3.1274,-3.1213,-3.1175,-3.1165,-3.114,-3.1187,-3.1177,-3.1202,-3.12,-3.1292,-3.13,-3.1182,-3.1184,-3.1185,0,-3.1926,-3.1916,-3.1828,-3.1806,-3.1769,-3.1735,-3.1706,-3.1627,-3.16,-3.1529,-3.1522,-3.1475,-3.1434,-3.1373,-3.1306,-3.1258,-3.1231,-3.1267,-3.1223,-3.1245,-3.1231,-3.1232,-3.123,-3.1276,-3.1278,-3.1279,-3.128,0,-3.2018,-3.1984,-3.1944,-3.1894,-3.1861,-3.1817,-3.177,-3.1757,-3.1666,-3.164,-3.1597,-3.1566,-3.1503,-3.1458,-3.1402,-3.136,-3.1305,-3.1295,-3.1297,-3.1317,-3.1344,-3.133,-3.1212,-3.1293,-3.1292,-3.1291,-3.129,-3.1289,-3.2096,-3.2084,-3.202,-3.1979,-3.1935,-3.1893,-3.1874,-3.1818,-3.1781,-3.1724,-3.168,-3.1641,-3.158,-3.1498,-3.146,-3.1429,-3.1403,-3.1407,-3.1407,-3.1409,-3.1417,-3.1351,-3.1419,-3.1418,-3.1418,-3.1417,-3.1417,0,-3.2184,-3.2139,-3.2102,-3.2038,-3.2007,-3.1959,-3.1905,-3.1881,-3.1848,-3.1796,-3.1757,-3.1709,-3.1666,-3.1596,-3.1547,-3.1536,-3.151,-3.1525,-3.1525,-3.1516,-3.1443,-3.1446,-3.1547,-3.1547,-3.1547,-3.1547,-3.1547,-3.1547,-3.2225,-3.2203,-3.2161,-3.2116,-3.2071,-3.2032,-3.2005,-3.1966,-3.1924,-3.1874,-3.1837,-3.1792,-3.1733,-3.168,-3.1638,-3.1619,-3.1604,-3.1628,-3.1601,-3.1533,-3.1521,-3.1509,-3.1512,-3.1625,-3.1625,-3.1676,-3.1676,-3.1677]},{"header":{"parameterUnit":"m.s-1","parameterCategory":1,"la1":30.2991,"la2":30.254,"lo1":-89.0895,"lo2":-89.0444,"dy":0.0017,"dx":0.0017,"nx":28,"ny":28,"refTime":"2024-03-21T03:00:00:Z","depth":0,"parameterNumber":3,"parameterNumberName":"V-component_of_WINDS"},"data":[0,0,0,0,0,0,0,0,0,0,0,0,0,0,0,0,0,0,0,0,0,0,0,0,0,0,0,0,0,0,0,0,0,0,0,0,0,0,0,0,0,0,0,0,0,0,0,0,0,0,0,0,0,0,0,0,0,0,2.6869,2.6869,0,2.6874,2.6874,2.6874,2.6918,2.6919,2.692,2.6921,2.692,2.6919,2.6918,0,0,0,0,0,0,0,0,0,0,0,0,0,2.6894,2.6894,2.6869,2.6869,2.6869,2.6874,2.6874,2.6874,2.6917,2.6919,2.692,2.6921,2.6921,2.692,2.6918,0,0,0,0,0,0,0,0,0,0,0,0,0,2.6889,2.6893,2.6869,2.6892,2.6894,2.6874,2.6874,2.6874,2.6917,2.6919,2.692,2.6922,2.6921,2.692,2.6918,2.6875,0,0,2.6913,2.6913,0,0,0,0,0,0,0,0,2.689,2.6888,2.6888,2.689,2.6892,2.6897,2.6883,2.6874,2.6917,2.6908,2.6921,2.6923,2.6911,2.691,2.6907,2.6875,2.6875,2.6913,2.6912,2.6912,2.6911,0,0,0,0,0,0,0,2.689,2.6888,2.6871,2.6888,2.6891,2.69,2.6901,2.6881,2.69,2.6909,2.6912,2.6912,2.6912,2.6909,2.6908,2.6875,2.6913,2.6912,2.6911,2.691,2.6808,2.6806,0,0,0,0,0,0,2.6888,2.6888,2.6871,2.6871,2.6895,2.6898,2.69,2.6894,2.69,2.6903,2.6911,2.6914,2.6911,2.6909,2.6908,2.6858,2.6912,2.691,2.6909,2.681,2.6808,2.6806,0,0,0,0,0,0,2.6888,2.6886,2.6871,2.6881,2.688,2.6896,2.6889,2.6893,2.689,2.6902,2.6905,2.6904,2.6912,2.691,2.6883,2.6859,2.691,2.6908,2.6812,2.6809,2.6807,2.6758,0,0,0,0,0,0,2.6889,2.6886,2.687,2.688,2.6879,2.6847,2.6888,2.6892,2.6887,2.6892,2.6896,2.6899,2.6913,2.6886,2.6882,2.6857,2.6907,2.6814,2.6811,2.6808,2.6762,2.6754,2.6747,0,0,0,0,0,2.6889,2.6856,2.6869,2.6867,2.6861,2.6846,2.6845,2.6864,2.6885,2.6869,2.6877,2.6899,2.6862,2.6882,2.6879,2.6853,2.6816,2.6812,2.6808,2.6765,2.6755,2.6747,0,0,0,0,0,0,2.6841,2.6857,2.6873,2.6841,2.6842,2.6853,2.6834,2.6853,2.6846,2.685,2.6872,2.6873,2.6843,2.6845,2.6868,2.6812,2.6843,2.6838,2.6811,2.6802,2.6795,2.6794,2.6906,0,0,0,0,0,2.6827,2.6815,2.6829,2.68,2.68,2.6817,2.6811,2.6826,2.6826,2.6826,2.6832,2.6831,2.682,2.6811,2.6801,2.6763,2.6764,2.6743,2.6736,2.673,2.6725,2.6704,2.6695,2.6793,2.6793,2.6793,0,0,2.6797,2.6804,2.6795,2.6791,2.6793,2.6779,2.6817,2.68,2.6789,2.6823,2.6799,2.6803,2.6803,2.677,2.6756,2.6772,2.6698,2.6725,2.672,2.6718,2.6699,2.669,2.6681,2.679,2.679,2.6791,0,0,2.6735,2.674,2.6717,2.6718,2.6722,2.6734,2.6728,2.6736,2.6741,2.6717,2.6742,2.6729,2.6709,2.6708,2.6704,2.6643,2.6662,2.6639,2.66,2.658,2.6572,2.6565,2.6542,2.6534,2.6634,2.6634,2.6634,0,2.6697,2.6679,2.6701,2.6684,2.668,2.6712,2.6688,2.6688,2.6687,2.6683,2.6701,2.6676,2.6679,2.6646,2.6631,2.6627,2.662,2.6638,2.6572,2.6565,2.6559,2.6537,2.6529,2.6631,2.6632,2.6632,2.6632,0,2.6631,2.6618,2.6598,2.6598,2.6593,2.6571,2.659,2.6581,2.6596,2.6605,2.658,2.6584,2.6576,2.6569,2.6583,2.6538,2.6547,2.6568,2.6599,2.6546,2.6527,2.6519,2.6627,2.6628,2.6629,2.663,0,0,2.6538,2.6553,2.6545,2.6545,2.6552,2.6541,2.652,2.6514,2.6505,2.6504,2.6486,2.6469,2.6488,2.6484,2.6498,2.6481,2.6431,2.6503,2.6504,2.6489,2.638,2.6364,2.6354,2.6444,2.6442,2.6441,2.638,0,2.6479,2.6447,2.6467,2.643,2.6418,2.6448,2.643,2.6431,2.6439,2.6429,2.6437,2.6424,2.6451,2.6449,2.6433,2.644,2.6409,2.6445,2.6426,2.6425,2.6424,2.6344,2.6327,2.6269,2.6373,2.6371,2.637,0,2.6405,2.6402,2.6365,2.6374,2.6369,2.6353,2.6348,2.6338,2.6339,2.6347,2.6343,2.6361,2.634,2.6372,2.6343,2.6367,2.636,2.6363,2.6361,2.6359,2.6394,2.6339,2.6251,2.6242,2.6358,2.6359,2.636,0,2.634,2.6326,2.6302,2.6302,2.6312,2.63,2.6303,2.6307,2.6301,2.6296,2.6293,2.6285,2.6281,2.6274,2.6289,2.6311,2.6257,2.629,2.6261,2.6261,2.6248,2.6248,2.6157,2.6245,2.6245,2.6245,2.6246,0,2.6271,2.6246,2.6274,2.6259,2.6232,2.6255,2.6228,2.6234,2.6237,2.6223,2.6248,2.6234,2.6256,2.6243,2.6255,2.6229,2.6227,2.6231,2.6234,2.6228,2.6227,2.6223,2.6227,2.6243,2.6244,2.6244,2.6244,0,2.6193,2.6211,2.6186,2.6199,2.6201,2.6181,2.619,2.6176,2.6187,2.6168,2.6165,2.6181,2.6168,2.6183,2.617,2.6178,2.6142,2.6152,2.6142,2.6144,2.6114,2.6116,2.6016,2.6004,2.6101,2.61,2.6099,0,2.6148,2.613,2.6141,2.6134,2.6136,2.6125,2.612,2.6141,2.6135,2.6135,2.6121,2.611,2.6103,2.608,2.6089,2.6079,2.6088,2.6053,2.6086,2.6081,2.6086,2.6087,2.6085,2.6046,2.6045,2.6044,2.6043,0,2.6064,2.6074,2.6067,2.6062,2.6056,2.6053,2.6052,2.6044,2.6067,2.6058,2.6045,2.604,2.6028,2.6016,2.6009,2.6011,2.603,2.6033,2.6026,2.6019,2.6014,2.6015,2.6123,2.6035,2.6036,2.6036,2.6037,2.6037,2.6001,2.5987,2.5992,2.5983,2.5985,2.5983,2.5971,2.598,2.5971,2.5963,2.5976,2.596,2.5962,2.5955,2.5955,2.5941,2.5956,2.5945,2.5943,2.5939,2.5935,2.6017,2.594,2.5941,2.5941,2.5941,2.5941,0,2.5919,2.5924,2.5915,2.5914,2.5906,2.5927,2.5927,2.5918,2.5905,2.5905,2.5898,2.5883,2.5872,2.5881,2.5871,2.5859,2.5868,2.5856,2.5856,2.5856,2.5923,2.593,2.5849,2.5849,2.5849,2.5849,2.5849,2.5849,2.5875,2.5852,2.5862,2.5839,2.5845,2.583,2.5828,2.5826,2.5827,2.581,2.5802,2.5808,2.5812,2.5803,2.5793,2.5796,2.5791,2.5775,2.5781,2.5843,2.5852,2.586,2.5867,2.5774,2.5774,2.5716,2.5715,2.5715]}]]